This is the latest recevied weather packets stored in our database for station/object WV8MT. If no packets are shown the sender has not sent any weather packets the latest 10 day(s).
| Time | Temp. | Humidity | Pressure | Rain* | Wind** | Luminosity | Snow |
|---|---|---|---|---|---|---|---|
| 1778103622 | 20.56° C | 89% | 1013.2 hPa | 0 mm | - | - | - |
| 1778098818 | 22.22° C | 77% | 1012.5 hPa | 0 mm | - | - | - |
| 1778097627 | 21.67° C | 79% | 1012.7 hPa | 0 mm | - | - | - |
| 1778095224 | 20° C | 84% | 1012.5 hPa | 0 mm | - | - | - |
| 1778091018 | 20° C | 84% | 1012.9 hPa | 0 mm | - | - | - |
| 1778085616 | 17.78° C | 89% | 1013.4 hPa | 0 mm | - | - | - |
| 1778085020 | 17.78° C | 88% | 1013.3 hPa | 0 mm | - | - | - |
| 1778081426 | 18.33° C | 87% | 1013.1 hPa | 0 mm | - | - | - |
| 1778080832 | 17.78° C | 89% | 1013.4 hPa | 0 mm | - | - | - |
| 1778076623 | 16.11° C | 95% | 1013.8 hPa | 0 mm | - | - | - |
| 1778067629 | 13.33° C | 99% | 1014.1 hPa | 1.02 mm | - | - | - |
| 1778065823 | 13.33° C | 99% | 1013.7 hPa | 0.25 mm | - | - | - |
| 1778065227 | 13.33° C | 99% | 1013.8 hPa | 0.25 mm | - | - | - |
| 1778061019 | 17.22° C | 67% | 1013.2 hPa | 0 mm | - | - | - |
| 1778060423 | 17.22° C | 66% | 1013.2 hPa | 0 mm | - | - | - |
| 1778057425 | 17.22° C | 65% | 1013.4 hPa | 0 mm | - | - | - |
| 1778055024 | 17.78° C | 63% | 1013.6 hPa | 0 mm | - | - | - |
| 1778045416 | 17.78° C | 59% | 1015.1 hPa | 0 mm | - | - | - |
| 1778043649 | 17.22° C | 60% | 1015.4 hPa | 0 mm | - | - | - |
| 1778040017 | 17.22° C | 59% | 1015.2 hPa | 0 mm | - | - | - |
| 1778039421 | 17.22° C | 60% | 1015.2 hPa | 0 mm | - | - | - |
| 1778038229 | 17.22° C | 59% | 1015.3 hPa | 0 mm | - | - | - |
| 1778036443 | 17.22° C | 59% | 1015.6 hPa | 0 mm | - | - | - |
| 1778035225 | 17.78° C | 58% | 1015.8 hPa | 0 mm | - | - | - |
| 1778033419 | 17.78° C | 57% | - | 0 mm | - | - | - |
* Rain latest hour (hover to see other rain measurements)
** Current wind speed in m/s (hover to see current wind gust speed)